カタログに戻る

STARLINK-31413

運用中通信VLEO
NORAD 59353·PAYLOAD·🇺🇸 United States

打ち上げ Mar 31, 2024 から Cape Canaveral Space Force Station

Loading…

次のパス (今後24時間)

TLE

最新Source: CelesTrak SupGP

元期: Sep 14, 2026, 22:52 UTC

1 59353C 24060F   26257.95326389  .00034185  00000+0  12386-2 0  2573
2 59353  43.0013 270.7664 0001591 265.8848 356.9581 15.27550812    11

AllMySatでSTARLINK-31413をリアルタイム追跡

Download on the App Store